Hourly Weather Adolfin

Today, 7 March, Sunday

Time Temperature Precipitation Wind Pressure Humidity
00:00 -2°C° 0 mm 5 mps 753 mmHg 69%
01:00 -4°C° 0 mm 5 mps 752 mmHg 71%
02:00 -4°C° 0 mm 6 mps 752 mmHg 72%
03:00 -3°C° 0 mm 6 mps 751 mmHg 74%
04:00 -3°C° 0 mm 7 mps 750 mmHg 75%
05:00 -3°C° 0 mm 7 mps 750 mmHg 76%
06:00 -4°C° 0 mm 8 mps 750 mmHg 78%
07:00 -2°C° 0 mm 8 mps 750 mmHg 80%
08:00 -3°C° 0 mm 9 mps 749 mmHg 80%
09:00 -3°C° 0 mm 9 mps 749 mmHg 80%
10:00 -3°C° 0 mm 9 mps 749 mmHg 80%
11:00 -1°C° 0 mm 9 mps 748 mmHg 78%
12:00 -1°C° 0 mm 9 mps 748 mmHg 75%
13:00 -1°C° 0 mm 9 mps 747 mmHg 73%
14:00 -1°C° 0 mm 8 mps 747 mmHg 72%
15:00 -1°C° 0 mm 8 mps 746 mmHg 72%
16:00 -1°C° 0 mm 7 mps 746 mmHg 71%
17:00 -2°C° 0 mm 7 mps 746 mmHg 73%
18:00 -2°C° 0 mm 7 mps 746 mmHg 75%
19:00 -3°C° 0 mm 6 mps 746 mmHg 77%
20:00 -3°C° 0 mm 6 mps 746 mmHg 78%
21:00 -3°C° 0 mm 6 mps 746 mmHg 78%
22:00 -3°C° 0 mm 6 mps 746 mmHg 79%
23:00 -2°C° 0.2 mm 5 mps 746 mmHg 83%

Tomorrow, 8 March, Monday

Time Temperature Precipitation Wind Pressure Humidity
00:00 -4°C° 0.2 mm 5 mps 746 mmHg 87%
01:00 -3°C° 0.2 mm 4 mps 746 mmHg 90%
02:00 -3°C° 0.1 mm 4 mps 746 mmHg 88%
03:00 -4°C° 0.1 mm 3 mps 746 mmHg 85%
04:00 -4°C° 0.1 mm 3 mps 746 mmHg 83%
05:00 -4°C° 0 mm 3 mps 746 mmHg 79%
06:00 -4°C° 0 mm 3 mps 747 mmHg 76%
07:00 -4°C° 0 mm 4 mps 747 mmHg 73%
08:00 -3°C° 0 mm 4 mps 748 mmHg 66%
09:00 -2°C° 0 mm 5 mps 748 mmHg 60%
10:00 -2°C° 0 mm 6 mps 749 mmHg 53%
11:00 -2°C° 0 mm 6 mps 749 mmHg 54%
12:00 -1°C° 0 mm 6 mps 749 mmHg 54%
13:00 -1°C° 0 mm 6 mps 749 mmHg 55%
14:00 0°C° 0 mm 5 mps 749 mmHg 56%
15:00 0°C° 0 mm 5 mps 749 mmHg 57%
16:00 -1°C° 0 mm 5 mps 749 mmHg 59%
17:00 -2°C° 0 mm 4 mps 749 mmHg 64%
18:00 -2°C° 0 mm 3 mps 750 mmHg 69%
19:00 -3°C° 0 mm 2 mps 750 mmHg 74%
20:00 -3°C° 0 mm 2 mps 750 mmHg 76%
21:00 -3°C° 0 mm 2 mps 750 mmHg 77%
22:00 -3°C° 0 mm 2 mps 751 mmHg 78%
23:00 -3°C° 0 mm 2 mps 751 mmHg 79%

Day after tomorrow, 9 March, Tuesday

Time Temperature Precipitation Wind Pressure Humidity
00:00 -4°C° 0 mm 2 mps 751 mmHg 79%
01:00 -2°C° 0 mm 1 mps 751 mmHg 80%
02:00 -2°C° 0 mm 1 mps 751 mmHg 80%
03:00 -2°C° 0 mm 1 mps 750 mmHg 80%
04:00 -2°C° 0 mm 1 mps 750 mmHg 80%
05:00 -2°C° 0 mm 1 mps 750 mmHg 78%
06:00 -3°C° 0 mm 0 mps 751 mmHg 76%
07:00 -2°C° 0 mm 0 mps 751 mmHg 74%
08:00 -2°C° 0 mm 0 mps 751 mmHg 69%
09:00 -1°C° 0 mm 0 mps 751 mmHg 64%
10:00 0°C° 0 mm 0 mps 751 mmHg 58%
11:00 +1°C° 0 mm 0 mps 751 mmHg 55%
12:00 +2°C° 0 mm 1 mps 751 mmHg 52%
13:00 +3°C° 0 mm 1 mps 751 mmHg 49%
14:00 +2°C° 0 mm 1 mps 751 mmHg 50%
15:00 +2°C° 0 mm 1 mps 750 mmHg 51%
16:00 +2°C° 0 mm 1 mps 750 mmHg 52%
17:00 +1°C° 0 mm 1 mps 750 mmHg 57%
18:00 0°C° 0 mm 1 mps 750 mmHg 61%
19:00 -3°C° 0 mm 2 mps 751 mmHg 66%
20:00 -3°C° 0 mm 2 mps 751 mmHg 68%
21:00 -3°C° 0 mm 2 mps 751 mmHg 70%
22:00 -3°C° 0 mm 2 mps 751 mmHg 72%
23:00 -1°C° 0 mm 1 mps 751 mmHg 74%

10 March, Wednesday

Time Temperature Precipitation Wind Pressure Humidity
00:00 -1°C° 0 mm 1 mps 750 mmHg 76%
01:00 -1°C° 0 mm 1 mps 750 mmHg 77%
02:00 -2°C° 0 mm 1 mps 750 mmHg 79%
03:00 -2°C° 0 mm 1 mps 750 mmHg 80%
04:00 -2°C° 0 mm 1 mps 750 mmHg 81%
05:00 -1°C° 0 mm 1 mps 750 mmHg 80%
06:00 -1°C° 0 mm 1 mps 751 mmHg 78%
07:00 -1°C° 0 mm 1 mps 751 mmHg 77%
08:00 0°C° 0 mm 1 mps 751 mmHg 68%
09:00 +1°C° 0 mm 1 mps 751 mmHg 60%
10:00 +1°C° 0 mm 2 mps 752 mmHg 52%
11:00 +2°C° 0 mm 1 mps 752 mmHg 48%
12:00 +3°C° 0 mm 1 mps 752 mmHg 45%
13:00 +3°C° 0 mm 1 mps 752 mmHg 41%
14:00 +3°C° 0 mm 1 mps 752 mmHg 41%
15:00 +3°C° 0 mm 1 mps 752 mmHg 42%
16:00 +3°C° 0 mm 1 mps 752 mmHg 42%
17:00 +2°C° 0 mm 1 mps 752 mmHg 46%
18:00 +1°C° 0 mm 1 mps 752 mmHg 50%
19:00 -2°C° 0 mm 0 mps 752 mmHg 53%
20:00 -1°C° 0 mm 1 mps 752 mmHg 54%
21:00 -1°C° 0 mm 1 mps 752 mmHg 54%
22:00 -1°C° 0 mm 1 mps 752 mmHg 55%
23:00 -3°C° 0 mm 2 mps 752 mmHg 57%

11 March, Thursday

Time Temperature Precipitation Wind Pressure Humidity
00:00 -3°C° 0 mm 2 mps 752 mmHg 58%
01:00 -3°C° 0 mm 2 mps 752 mmHg 60%
02:00 -3°C° 0 mm 2 mps 751 mmHg 63%
03:00 -4°C° 0 mm 3 mps 751 mmHg 65%
04:00 -4°C° 0 mm 3 mps 750 mmHg 67%
05:00 -4°C° 0 mm 3 mps 750 mmHg 66%
06:00 -3°C° 0 mm 4 mps 749 mmHg 64%
07:00 -3°C° 0 mm 4 mps 749 mmHg 63%
08:00 -2°C° 0 mm 5 mps 748 mmHg 56%
09:00 -1°C° 0 mm 6 mps 747 mmHg 50%
10:00 +1°C° 0 mm 6 mps 747 mmHg 43%
11:00 +2°C° 0 mm 6 mps 746 mmHg 44%
12:00 +2°C° 0 mm 7 mps 745 mmHg 45%
13:00 +3°C° 0 mm 7 mps 744 mmHg 47%
14:00 +2°C° 0.4 mm 7 mps 744 mmHg 63%
15:00 0°C° 0.4 mm 7 mps 743 mmHg 79%
16:00 -1°C° 0.4 mm 6 mps 742 mmHg 95%
17:00 -1°C° 1.1 mm 6 mps 741 mmHg 94%
18:00 +1°C° 1.1 mm 6 mps 741 mmHg 93%
19:00 +1°C° 1.1 mm 6 mps 740 mmHg 93%
20:00 +2°C° 0.6 mm 7 mps 740 mmHg 91%
21:00 +2°C° 0.6 mm 7 mps 739 mmHg 88%
22:00 +3°C° 0.6 mm 7 mps 739 mmHg 86%
23:00 +3°C° 0.1 mm 7 mps 739 mmHg 86%

12 March, Friday

Time Temperature Precipitation Wind Pressure Humidity
00:00 +3°C° 0.1 mm 6 mps 739 mmHg 86%
01:00 +3°C° 0.1 mm 6 mps 739 mmHg 86%
02:00 +3°C° 0 mm 6 mps 739 mmHg 87%
03:00 +3°C° 0 mm 5 mps 739 mmHg 88%
04:00 +2°C° 0 mm 5 mps 739 mmHg 89%
05:00 +2°C° 0 mm 5 mps 740 mmHg 89%
06:00 +2°C° 0 mm 5 mps 740 mmHg 89%
07:00 +2°C° 0 mm 5 mps 740 mmHg 89%
08:00 +3°C° 0.1 mm 7 mps 740 mmHg 83%
09:00 +4°C° 0.1 mm 8 mps 741 mmHg 76%
10:00 +5°C° 0.1 mm 9 mps 741 mmHg 70%
11:00 +5°C° 0.1 mm 9 mps 741 mmHg 67%
12:00 +5°C° 0.1 mm 9 mps 741 mmHg 65%
13:00 +5°C° 0.1 mm 9 mps 742 mmHg 62%
14:00 +5°C° 0 mm 8 mps 742 mmHg 61%
15:00 +6°C° 0 mm 7 mps 742 mmHg 59%
16:00 +7°C° 0 mm 6 mps 742 mmHg 57%
17:00 +6°C° 0 mm 5 mps 743 mmHg 62%
18:00 +3°C° 0 mm 5 mps 743 mmHg 67%
19:00 +3°C° 0 mm 4 mps 743 mmHg 71%
20:00 +3°C° 0 mm 4 mps 743 mmHg 73%
21:00 +1°C° 0 mm 4 mps 744 mmHg 75%
22:00 +1°C° 0 mm 4 mps 744 mmHg 77%
23:00 +1°C° 0 mm 4 mps 744 mmHg 78%
Show more